{"data":{"norad_id":44231,"epoch":"2026-05-25T04:25:50.810304Z","epoch_age_seconds":55524,"freshness":"FRESH","line1":"1 44231U 19027A   26145.18461586 -.00000249  00000+0  00000+0 0  9994","line2":"2 44231   1.6023  74.4719 0010611 281.5667  97.6925  1.00269167 25854","mean_motion":1.00269167,"eccentricity":0.0010611,"inclination_deg":1.6023,"raan_deg":74.4719,"arg_perigee_deg":281.5667,"mean_anomaly_deg":97.6925,"bstar":0,"rev_number":2585,"period_min":1436.1344001192,"perigee_km":35742.587121732,"apogee_km":35832.070673459,"semimajor_km":42165.465897596,"source":"CELESTRAK","updated_at":"2026-05-25T13:38:24.221601Z"}}